,,Stat6,,Stat2,,Stat8,,Stat9,,Stat10,,Wind1,,Wind1,
time,status,PA1M_AVG,status,PR1M_SUM,status,RH1M_AVG,status,SR1M_AVG,status,TA1M_AVG,status,W1dAve1m,status,W1sAve1m,
2006-01-21, 00:00:00,VALID,917.934,VALID,0,VALID,100,VALID,0.0849042,VALID,19.9173,VALID,181,VALID,0.515807,
2006-01-21, 00:01:00,VALID,917.938,VALID,0,VALID,100,VALID,0.0509425,VALID,19.9104,VALID,204,VALID,0.272017,
2006-01-21, 00:02:00,VALID,917.938,VALID,0,VALID,100,VALID,0.0849042,VALID,19.8974,VALID,247,VALID,0.697173,
2006-01-21, 00:03:00,VALID,917.936,VALID,0,VALID,99.983,VALID,0.0509425,VALID,19.8974,VALID,170,VALID,0.609375,
2006-01-21, 00:04:01,VALID,917.944,VALID,0,VALID,99.9906,VALID,0.0169808,VALID,19.8974,VALID,106,VALID,0.433594,
2006-01-21, 00:05:00,VALID,917.924,VALID,0,VALID,99.999,VALID,0.0339617,VALID,19.9039,VALID,19,VALID,0.602865,
2006-01-21, 00:06:00,VALID,917.921,VALID,0,VALID,99.9893,VALID,0.152827,VALID,19.8964,VALID,26,VALID,0.277344,
2006-01-21, 00:07:00,VALID,917.916,VALID,0,VALID,99.9865,VALID,0.152827,VALID,19.8962,VALID,15,VALID,0.492374,
2006-01-21, 00:08:01,VALID,917.917,VALID,0,VALID,99.9545,VALID,0.118866,VALID,19.9026,VALID,355,VALID,0.0632102,
2006-01-21, 00:09:00,VALID,917.916,VALID,0,VALID,99.9087,VALID,0.135847,VALID,19.9061,VALID,359,VALID,0.20149,
2006-01-21, 00:10:00,VALID,917.909,VALID,0,VALID,99.9163,VALID,0.152827,VALID,19.9091,VALID,360,VALID,0.262005,
2006-01-21, 00:11:01,VALID,917.905,VALID,0,VALID,99.9303,VALID,0.135847,VALID,19.9126,VALID,9,VALID,0.309411,
2006-01-21, 00:12:00,VALID,917.904,VALID,0,VALID,99.9329,VALID,0.135847,VALID,19.9226,VALID,15,VALID,0.0431463,
2006-01-21, 00:13:00,VALID,917.896,VALID,0,VALID,99.8782,VALID,0.135847,VALID,19.9123,VALID,10,VALID,0.264881,
2006-01-21, 00:14:01,VALID,917.865,VALID,0,VALID,99.7574,VALID,0.135847,VALID,19.8997,VALID,3,VALID,0.496185,
2006-01-21, 00:15:00,VALID,917.861,VALID,0,VALID,99.7434,VALID,0.118866,VALID,19.8805,VALID,11,VALID,0.776344,
2006-01-21, 00:16:00,VALID,917.844,VALID,0,VALID,99.7383,VALID,0.152827,VALID,19.8536,VALID,18,VALID,0.581473,
2006-01-21, 00:17:01,VALID,917.823,VALID,0,VALID,99.7688,VALID,0.0849042,VALID,19.8509,VALID,11,VALID,0.148074,
2006-01-21, 00:18:00,VALID,917.816,VALID,0,VALID,99.7714,VALID,0.101885,VALID,19.835,VALID,12,VALID,0.34707,
2006-01-21, 00:19:00,VALID,917.806,VALID,0,VALID,99.7714,VALID,0.0849042,VALID,19.8226,VALID,12,VALID,0.00260417,
2006-01-21, 00:20:01,VALID,917.805,VALID,0,VALID,99.8438,VALID,0.152827,VALID,19.8086,VALID,12,VALID,0,
2006-01-21, 00:21:01,VALID,917.809,VALID,0,VALID,99.8858,VALID,0.0849042,VALID,19.7959,VALID,12,VALID,0,
2006-01-21, 00:22:00,VALID,917.805,VALID,0,VALID,99.9453,VALID,0.101885,VALID,19.7838,VALID,12,VALID,0,
2006-01-21, 00:23:00,VALID,917.801,VALID,0,VALID,99.9619,VALID,0.118866,VALID,19.7733,VALID,12,VALID,0,
2006-01-21, 00:24:00,VALID,917.798,VALID,0,VALID,99.9329,VALID,0.0849042,VALID,19.777,VALID,12,VALID,0.177326,
2006-01-21, 00:25:01,VALID,917.792,VALID,0,VALID,99.9906,VALID,0.135847,VALID,19.7641,VALID,13,VALID,0.226944,
2006-01-21, 00:26:01,VALID,917.779,VALID,0,VALID,99.9941,VALID,0.135847,VALID,19.734,VALID,13,VALID,0.0257241,
2006-01-21, 00:27:00,VALID,917.79,VALID,0,VALID,100,VALID,0.118866,VALID,19.7248,VALID,13,VALID,0,
2006-01-21, 00:28:00,VALID,917.776,VALID,0,VALID,100,VALID,0.101885,VALID,19.7213,VALID,13,VALID,0.00099734,
2006-01-21, 00:29:00,VALID,917.754,VALID,0,VALID,100,VALID,0.101885,VALID,19.735,VALID,18,VALID,0.315407,
2006-01-21, 00:30:00,VALID,917.757,VALID,0,VALID,100,VALID,0.101885,VALID,19.7417,VALID,21,VALID,0,
2006-01-21, 00:31:00,VALID,917.752,VALID,0,VALID,100,VALID,0.135847,VALID,19.728,VALID,21,VALID,0,
2006-01-21, 00:32:00,VALID,917.757,VALID,0,VALID,100,VALID,0.118866,VALID,19.7514,VALID,21,VALID,0,
2006-01-21, 00:33:01,VALID,917.753,VALID,0,VALID,100,VALID,0.135847,VALID,19.7412,VALID,21,VALID,0,
2006-01-21, 00:34:00,VALID,917.757,VALID,0,VALID,100,VALID,0.135847,VALID,19.7641,VALID,21,VALID,0,
2006-01-21, 00:35:01,VALID,917.743,VALID,0,VALID,100,VALID,0.101885,VALID,19.7604,VALID,21,VALID,0,
2006-01-21, 00:36:01,VALID,917.746,VALID,0,VALID,100,VALID,0.135847,VALID,19.787,VALID,21,VALID,0.00236192,
2006-01-21, 00:37:01,VALID,917.74,VALID,0,VALID,100,VALID,0.135847,VALID,19.7805,VALID,21,VALID,0.241806,
2006-01-21, 00:38:01,VALID,917.743,VALID,0,VALID,100,VALID,0.135847,VALID,19.7703,VALID,21,VALID,0.167151,
2006-01-21, 00:39:01,VALID,917.75,VALID,0,VALID,100,VALID,0.0849042,VALID,19.7711,VALID,21,VALID,0.0329241,
2006-01-21, 00:40:01,VALID,917.734,VALID,0,VALID,100,VALID,0.0849042,VALID,19.7708,VALID,16,VALID,0.775981,
2006-01-21, 00:41:00,VALID,917.735,VALID,0,VALID,100,VALID,0.118866,VALID,19.777,VALID,21,VALID,0.802379,
2006-01-21, 00:42:01,VALID,917.733,VALID,0,VALID,100,VALID,0.135847,VALID,19.7701,VALID,25,VALID,0.492188,
2006-01-21, 00:43:01,VALID,917.719,VALID,0,VALID,100,VALID,0.152827,VALID,19.7833,VALID,26,VALID,0.828303,
2006-01-21, 00:44:00,VALID,917.719,VALID,0,VALID,100,VALID,0.118866,VALID,19.793,VALID,27,VALID,0.598958,
2006-01-21, 00:45:00,VALID,917.705,VALID,0,VALID,100,VALID,0.101885,VALID,19.7867,VALID,26,VALID,0.53941,
2006-01-21, 00:46:01,VALID,917.697,VALID,0,VALID,100,VALID,0.0849042,VALID,19.7835,VALID,20,VALID,0.62793,
2006-01-21, 00:47:00,VALID,917.7,VALID,0,VALID,100,VALID,0.0679233,VALID,19.7997,VALID,24,VALID,0.903711,
2006-01-21, 00:48:01,VALID,917.676,VALID,0,VALID,100,VALID,0.118866,VALID,19.7932,VALID,20,VALID,1.15298,
2006-01-21, 00:49:01,VALID,917.66,VALID,0,VALID,100,VALID,0.118866,VALID,19.787,VALID,26,VALID,1.56195,
2006-01-21, 00:50:01,VALID,917.632,VALID,0,VALID,100,VALID,0.169808,VALID,19.7862,VALID,27,VALID,1.53594,
2006-01-21, 00:51:01,VALID,917.63,VALID,0,VALID,100,VALID,0.152827,VALID,19.7892,VALID,19,VALID,1.46839,
2006-01-21, 00:52:01,VALID,917.592,VALID,0,VALID,100,VALID,0.186789,VALID,19.793,VALID,28,VALID,1.09339,
2006-01-21, 00:53:00,VALID,917.585,VALID,0,VALID,100,VALID,0.152827,VALID,19.7989,VALID,24,VALID,0.903409,
2006-01-21, 00:54:01,VALID,917.582,VALID,0,VALID,100,VALID,0.135847,VALID,19.8022,VALID,22,VALID,1.04724,
2006-01-21, 00:55:01,VALID,917.575,VALID,0,VALID,100,VALID,0.118866,VALID,19.8091,VALID,24,VALID,0.950076,
2006-01-21, 00:56:01,VALID,917.571,VALID,0,VALID,100,VALID,0.169808,VALID,19.7892,VALID,26,VALID,0.819602,
2006-01-21, 00:57:01,VALID,917.554,VALID,0,VALID,100,VALID,0.135847,VALID,19.7765,VALID,24,VALID,1.17001,
2006-01-21, 00:58:00,VALID,917.549,VALID,0,VALID,100,VALID,0.169808,VALID,19.7738,VALID,28,VALID,0.931686,
2006-01-21, 00:59:01,VALID,917.54,VALID,0,VALID,100,VALID,0.169808,VALID,19.7474,VALID,19,VALID,0.783727,
2006-01-21, 01:00:01,VALID,917.516,VALID,0,VALID,100,VALID,0.152827,VALID,19.7345,VALID,13,VALID,0.810785,
2006-01-21, 01:01:01,VALID,917.504,VALID,0,VALID,100,VALID,0.135847,VALID,19.6989,VALID,17,VALID,0.806686,
2006-01-21, 01:02:01,VALID,917.484,VALID,0,VALID,100,VALID,0.152827,VALID,19.6758,VALID,16,VALID,0.733613,
2006-01-21, 01:03:01,VALID,917.454,VALID,0,VALID,100,VALID,0.135847,VALID,19.6534,VALID,22,VALID,0.720788,
2006-01-21, 01:04:01,VALID,917.424,VALID,0,VALID,100,VALID,0.169808,VALID,19.634,VALID,25,VALID,0.555043,
2006-01-21, 01:05:01,VALID,917.391,VALID,0,VALID,100,VALID,0.152827,VALID,19.6318,VALID,16,VALID,0.427734,
2006-01-21, 01:06:01,VALID,917.371,VALID,0,VALID,100,VALID,0.118866,VALID,19.6022,VALID,11,VALID,0.272866,
2006-01-21, 01:07:01,VALID,917.346,VALID,0,VALID,100,VALID,0.169808,VALID,19.5793,VALID,18,VALID,0.234549,
2006-01-21, 01:08:01,VALID,917.325,VALID,0,VALID,100,VALID,0.152827,VALID,19.5567,VALID,22,VALID,0.282452,
2006-01-21, 01:09:01,VALID,917.308,VALID,0,VALID,100,VALID,0.169808,VALID,19.5375,VALID,20,VALID,0.212612,
2006-01-21, 01:10:01,VALID,917.285,VALID,0,VALID,100,VALID,0.169808,VALID,19.5149,VALID,20,VALID,0.385975,
2006-01-21, 01:11:01,VALID,917.283,VALID,0,VALID,100,VALID,0.135847,VALID,19.4987,VALID,20,VALID,0.496951,
2006-01-21, 01:12:01,VALID,917.257,VALID,0,VALID,100,VALID,0.101885,VALID,19.4957,VALID,27,VALID,0.567951,
2006-01-21, 01:13:01,VALID,917.241,VALID,0,VALID,100,VALID,0.186789,VALID,19.4793,VALID,16,VALID,0.621433,
2006-01-21, 01:14:01,VALID,917.231,VALID,0,VALID,100,VALID,0.152827,VALID,19.4629,VALID,357,VALID,0.770008,
2006-01-21, 01:15:01,VALID,917.22,VALID,0,VALID,100,VALID,0.135847,VALID,19.4696,VALID,3,VALID,1.01744,
2006-01-21, 01:16:01,VALID,917.205,VALID,0,VALID,100,VALID,0.169808,VALID,19.4664,VALID,355,VALID,0.991016,
2006-01-21, 01:17:01,VALID,917.188,VALID,0,VALID,100,VALID,0.186789,VALID,19.4629,VALID,355,VALID,1.0367,
2006-01-21, 01:18:01,VALID,917.176,VALID,0,VALID,100,VALID,0.169808,VALID,19.4731,VALID,6,VALID,0.786345,
2006-01-21, 01:19:01,VALID,917.158,VALID,0,VALID,100,VALID,0.169808,VALID,19.4828,VALID,357,VALID,1.06146,
2006-01-21, 01:20:01,VALID,917.146,VALID,0,VALID,100,VALID,0.186789,VALID,19.4923,VALID,355,VALID,1.19241,
2006-01-21, 01:21:01,VALID,917.153,VALID,0,VALID,100,VALID,0.0849042,VALID,19.4736,VALID,342,VALID,1.00648,
2006-01-21, 01:22:01,VALID,917.149,VALID,0,VALID,100,VALID,0.0679233,VALID,19.4776,VALID,355,VALID,1.28404,
2006-01-21, 01:23:01,VALID,917.138,VALID,0,VALID,100,VALID,0.0509425,VALID,19.4803,VALID,359,VALID,0.841755,
2006-01-21, 01:24:00,VALID,917.127,VALID,0,VALID,100,VALID,0.0849042,VALID,19.4843,VALID,350,VALID,0.89444,
2006-01-21, 01:25:00,VALID,917.115,VALID,0,VALID,100,VALID,0.0509425,VALID,19.4845,VALID,359,VALID,1.05926,
2006-01-21, 01:26:00,VALID,917.116,VALID,0,VALID,100,VALID,0.0509425,VALID,19.5002,VALID,352,VALID,1.09604,
2006-01-21, 01:27:00,VALID,917.111,VALID,0,VALID,100,VALID,0.0679233,VALID,19.5097,VALID,341,VALID,1.20052,
2006-01-21, 01:28:00,VALID,917.093,VALID,0,VALID,100,VALID,0.101885,VALID,19.5291,VALID,341,VALID,1.16261,
2006-01-21, 01:29:00,VALID,917.08,VALID,0,VALID,100,VALID,0.0509425,VALID,19.539,VALID,324,VALID,0.739062,
2006-01-21, 01:30:00,VALID,917.062,VALID,0,VALID,100,VALID,0.0509425,VALID,19.5584,VALID,354,VALID,0.886364,
2006-01-21, 01:31:00,VALID,917.053,VALID,0,VALID,100,VALID,0.0339617,VALID,19.5489,VALID,358,VALID,1.5625,
2006-01-21, 01:32:00,VALID,917.039,VALID,0,VALID,100,VALID,0.101885,VALID,19.5681,VALID,357,VALID,1.28835,
2006-01-21, 01:33:00,VALID,917.071,VALID,0,VALID,100,VALID,0.0679233,VALID,19.5748,VALID,337,VALID,0.808866,
2006-01-21, 01:34:00,VALID,917.062,VALID,0,VALID,100,VALID,0.0509425,VALID,19.5743,VALID,353,VALID,0.591332,
2006-01-21, 01:35:00,VALID,917.048,VALID,0,VALID,100,VALID,0.0679233,VALID,19.5845,VALID,326,VALID,0.655107,
2006-01-21, 01:36:00,VALID,917.054,VALID,0,VALID,100,VALID,0.152827,VALID,19.6022,VALID,357,VALID,0.367746,
2006-01-21, 01:37:00,VALID,917.062,VALID,0,VALID,100,VALID,0.186789,VALID,19.6057,VALID,357,VALID,0.263529,
2006-01-21, 01:38:00,VALID,917.067,VALID,0,VALID,100,VALID,0.135847,VALID,19.6181,VALID,357,VALID,0.135831,
2006-01-21, 01:39:00,VALID,917.083,VALID,0,VALID,100,VALID,0.169808,VALID,19.6248,VALID,357,VALID,0.152734,
2006-01-21, 01:40:00,VALID,917.083,VALID,0,VALID,100,VALID,0.169808,VALID,19.6383,VALID,9,VALID,0.948864,
2006-01-21, 01:41:00,VALID,917.102,VALID,0,VALID,100,VALID,0.118866,VALID,19.6315,VALID,6,VALID,0.402344,
2006-01-21, 01:42:00,VALID,917.096,VALID,0,VALID,100,VALID,0.118866,VALID,19.638,VALID,8,VALID,0.344922,
2006-01-21, 01:43:00,VALID,917.112,VALID,0,VALID,100,VALID,0.135847,VALID,19.6378,VALID,21,VALID,1.08363,
2006-01-21, 01:44:00,VALID,917.119,VALID,0,VALID,100,VALID,0.135847,VALID,19.6542,VALID,21,VALID,0.768864,
2006-01-21, 01:45:00,VALID,917.124,VALID,0,VALID,100,VALID,0.135847,VALID,19.6646,VALID,21,VALID,0.0571646,
2006-01-21, 01:46:00,VALID,917.139,VALID,0,VALID,100,VALID,0.152827,VALID,19.6544,VALID,20,VALID,0.506479,
2006-01-21, 01:47:00,VALID,917.142,VALID,0,VALID,100,VALID,0.135847,VALID,19.6775,VALID,30,VALID,0.133539,
2006-01-21, 01:48:00,VALID,917.123,VALID,0,VALID,100,VALID,0.152827,VALID,19.6738,VALID,32,VALID,0.00967262,
2006-01-21, 01:49:00,VALID,917.103,VALID,0,VALID,100,VALID,0.169808,VALID,19.6798,VALID,32,VALID,0.0985863,
2006-01-21, 01:50:00,VALID,917.094,VALID,0,VALID,100,VALID,0.169808,VALID,19.6895,VALID,32,VALID,0.0167683,
2006-01-21, 01:51:00,VALID,917.088,VALID,0,VALID,100,VALID,0.0679233,VALID,19.6843,VALID,32,VALID,0.480639,
2006-01-21, 01:52:00,VALID,917.08,VALID,0,VALID,100,VALID,0.135847,VALID,19.691,VALID,299,VALID,0.815234,
2006-01-21, 01:53:00,VALID,917.085,VALID,0,VALID,100,VALID,0.101885,VALID,19.691,VALID,295,VALID,0.354911,
2006-01-21, 01:54:00,VALID,917.075,VALID,0,VALID,100,VALID,0.118866,VALID,19.6942,VALID,26,VALID,1.00893,
2006-01-21, 01:55:00,VALID,917.076,VALID,0,VALID,100,VALID,0.118866,VALID,19.7037,VALID,7,VALID,1.03813,
2006-01-21, 01:56:00,VALID,917.067,VALID,0,VALID,100,VALID,0.101885,VALID,19.7101,VALID,359,VALID,0.44436,
2006-01-21, 01:57:00,VALID,917.057,VALID,0,VALID,100,VALID,0.101885,VALID,19.7241,VALID,356,VALID,0.0666667,
2006-01-21, 01:58:00,VALID,917.056,VALID,0,VALID,100,VALID,0.101885,VALID,19.73,VALID,356,VALID,0.238372,
2006-01-21, 01:59:00,VALID,917.046,VALID,0,VALID,100,VALID,0.101885,VALID,19.73,VALID,313,VALID,0.305804,
2006-01-21, 02:00:00,VALID,917.036,VALID,0,VALID,100,VALID,0.135847,VALID,19.7397,VALID,210,VALID,0.030231,
2006-01-21, 02:01:00,VALID,917.028,VALID,0,VALID,100,VALID,0.101885,VALID,19.7265,VALID,210,VALID,0,
2006-01-21, 02:02:00,VALID,917.027,VALID,0,VALID,100,VALID,0.118866,VALID,19.7397,VALID,210,VALID,0.250372,
2006-01-21, 02:03:00,VALID,916.99,VALID,0,VALID,100,VALID,0.101885,VALID,19.7328,VALID,323,VALID,0.747523,
2006-01-21, 02:04:00,VALID,916.996,VALID,0,VALID,100,VALID,0.101885,VALID,19.7325,VALID,310,VALID,0.343378,
2006-01-21, 02:05:00,VALID,916.995,VALID,0,VALID,100,VALID,0.135847,VALID,19.736,VALID,323,VALID,0.182227,
2006-01-21, 02:06:00,VALID,916.985,VALID,0,VALID,100,VALID,0.118866,VALID,19.7258,VALID,330,VALID,0.0261719,
2006-01-21, 02:07:00,VALID,916.988,VALID,0,VALID,100,VALID,0.118866,VALID,19.7201,VALID,16,VALID,0.775436,
2006-01-21, 02:08:00,VALID,916.969,VALID,0,VALID,100,VALID,0.135847,VALID,19.7358,VALID,25,VALID,0.736632,
2006-01-21, 02:09:00,VALID,916.969,VALID,0,VALID,100,VALID,0.118866,VALID,19.7425,VALID,2,VALID,0.227865,
2006-01-21, 02:10:00,VALID,916.964,VALID,0,VALID,100,VALID,0.118866,VALID,19.7422,VALID,278,VALID,0.24657,
2006-01-21, 02:11:00,VALID,916.953,VALID,0,VALID,100,VALID,0.118866,VALID,19.732,VALID,357,VALID,0.604567,
2006-01-21, 02:12:00,VALID,916.965,VALID,0,VALID,100,VALID,0.152827,VALID,19.7323,VALID,12,VALID,0.473772,
2006-01-21, 02:13:00,VALID,916.97,VALID,0,VALID,100,VALID,0.135847,VALID,19.7387,VALID,4,VALID,0.12064,
2006-01-21, 02:14:00,VALID,916.961,VALID,0,VALID,100,VALID,0.118866,VALID,19.7425,VALID,22,VALID,0.64577,
2006-01-21, 02:15:00,VALID,916.963,VALID,0,VALID,100,VALID,0.135847,VALID,19.7387,VALID,21,VALID,0.410528,
2006-01-21, 02:16:00,VALID,916.975,VALID,0,VALID,100,VALID,0.152827,VALID,19.7452,VALID,19,VALID,0.613372,
2006-01-21, 02:17:00,VALID,916.976,VALID,0,VALID,100,VALID,0.118866,VALID,19.7559,VALID,15,VALID,0.210115,
2006-01-21, 02:18:00,VALID,916.975,VALID,0,VALID,100,VALID,0.118866,VALID,19.7492,VALID,15,VALID,0.0353423,
2006-01-21, 02:19:00,VALID,916.975,VALID,0,VALID,100,VALID,0.118866,VALID,19.7231,VALID,16,VALID,0.529474,
2006-01-21, 02:20:00,VALID,916.969,VALID,0,VALID,100,VALID,0.101885,VALID,19.7198,VALID,19,VALID,0.800145,
2006-01-21, 02:21:00,VALID,916.958,VALID,0,VALID,100,VALID,0.101885,VALID,19.7335,VALID,15,VALID,0.785334,
2006-01-21, 02:22:00,VALID,916.957,VALID,0,VALID,100,VALID,0.101885,VALID,19.7064,VALID,24,VALID,0.903587,
2006-01-21, 02:23:00,VALID,916.942,VALID,0,VALID,100,VALID,0.135847,VALID,19.7071,VALID,23,VALID,0.963796,
2006-01-21, 02:24:00,VALID,916.919,VALID,0,VALID,100,VALID,0.135847,VALID,19.6877,VALID,24,VALID,0.453497,
2006-01-21, 02:25:00,VALID,916.891,VALID,0,VALID,100,VALID,0.118866,VALID,19.6544,VALID,24,VALID,1.08278,
2006-01-21, 02:26:00,VALID,916.884,VALID,0,VALID,100,VALID,0.101885,VALID,19.6584,VALID,12,VALID,0.942587,
2006-01-21, 02:27:00,VALID,916.855,VALID,0,VALID,100,VALID,0.101885,VALID,19.6425,VALID,25,VALID,1.64916,
2006-01-21, 02:28:00,VALID,916.856,VALID,0,VALID,100,VALID,0.101885,VALID,19.6228,VALID,11,VALID,1.58454,
2006-01-21, 02:29:00,VALID,916.847,VALID,0,VALID,100,VALID,0.135847,VALID,19.6166,VALID,357,VALID,0.964286,
2006-01-21, 02:30:00,VALID,916.843,VALID,0,VALID,100,VALID,0.118866,VALID,19.6101,VALID,6,VALID,0.729539,
2006-01-21, 02:31:00,VALID,916.851,VALID,0,VALID,100,VALID,0.118866,VALID,19.6067,VALID,13,VALID,0.735863,
2006-01-21, 02:32:00,VALID,916.833,VALID,0,VALID,100,VALID,0.152827,VALID,19.6064,VALID,12,VALID,0.676172,
2006-01-21, 02:33:00,VALID,916.833,VALID,0,VALID,100,VALID,0.118866,VALID,19.6228,VALID,12,VALID,0.269055,
2006-01-21, 02:34:00,VALID,916.825,VALID,0,VALID,100,VALID,0.101885,VALID,19.6266,VALID,12,VALID,0.745075,
2006-01-21, 02:35:00,VALID,916.835,VALID,0,VALID,100,VALID,0.135847,VALID,19.6129,VALID,17,VALID,0.854651,
2006-01-21, 02:36:00,VALID,916.845,VALID,0,VALID,100,VALID,0.118866,VALID,19.6129,VALID,20,VALID,1.08239,
2006-01-21, 02:37:00,VALID,916.844,VALID,0,VALID,100,VALID,0.101885,VALID,19.6198,VALID,21,VALID,1.16921,
2006-01-21, 02:38:00,VALID,916.843,VALID,0,VALID,100,VALID,0.101885,VALID,19.6231,VALID,12,VALID,0.777514,
2006-01-21, 02:39:00,VALID,916.836,VALID,0,VALID,100,VALID,0.101885,VALID,19.6161,VALID,17,VALID,1.05342,
2006-01-21, 02:40:00,VALID,916.837,VALID,0,VALID,100,VALID,0.118866,VALID,19.629,VALID,33,VALID,0.619318,
2006-01-21, 02:41:00,VALID,916.844,VALID,0,VALID,100,VALID,0.152827,VALID,19.639,VALID,17,VALID,0.826451,
2006-01-21, 02:42:00,VALID,916.84,VALID,0,VALID,100,VALID,0.118866,VALID,19.6517,VALID,25,VALID,1.29102,
2006-01-21, 02:43:00,VALID,916.829,VALID,0,VALID,100,VALID,0.118866,VALID,19.6512,VALID,32,VALID,1.17622,
2006-01-21, 02:44:00,VALID,916.818,VALID,0,VALID,100,VALID,0.118866,VALID,19.678,VALID,25,VALID,1.4577,
2006-01-21, 02:45:00,VALID,916.801,VALID,0,VALID,100,VALID,0.118866,VALID,19.6542,VALID,24,VALID,0.843945,
2006-01-21, 02:46:00,VALID,916.811,VALID,0,VALID,100,VALID,0.118866,VALID,19.6778,VALID,23,VALID,0.727983,
2006-01-21, 02:47:00,VALID,916.821,VALID,0,VALID,100,VALID,0.135847,VALID,19.6907,VALID,14,VALID,0.515811,
2006-01-21, 02:48:00,VALID,916.805,VALID,0,VALID,100,VALID,0.118866,VALID,19.7071,VALID,23,VALID,0.64444,
2006-01-21, 02:49:00,VALID,916.802,VALID,0,VALID,100,VALID,0.118866,VALID,19.7071,VALID,27,VALID,0.0232422,
2006-01-21, 02:50:00,VALID,916.787,VALID,0,VALID,100,VALID,0.152827,VALID,19.7032,VALID,28,VALID,0.354469,
2006-01-21, 02:51:00,VALID,916.787,VALID,0,VALID,100,VALID,0.20377,VALID,19.7121,VALID,28,VALID,0.101215,
2006-01-21, 02:52:00,VALID,916.771,VALID,0,VALID,100,VALID,0.135847,VALID,19.7159,VALID,28,VALID,0.260975,
2006-01-21, 02:53:00,VALID,916.754,VALID,0,VALID,100,VALID,0.169808,VALID,19.7218,VALID,28,VALID,0.969922,
2006-01-21, 02:54:00,VALID,916.746,VALID,0,VALID,100,VALID,0.186789,VALID,19.7315,VALID,25,VALID,0.944444,
2006-01-21, 02:55:00,VALID,916.729,VALID,0,VALID,100,VALID,0.186789,VALID,19.729,VALID,20,VALID,0.54154,
2006-01-21, 02:56:00,VALID,916.741,VALID,0,VALID,100,VALID,0.20377,VALID,19.7188,VALID,19,VALID,0.373224,
2006-01-21, 02:57:00,VALID,916.743,VALID,0,VALID,100,VALID,0.169808,VALID,19.7094,VALID,340,VALID,0.553961,
2006-01-21, 02:58:00,VALID,916.719,VALID,0,VALID,100,VALID,0.152827,VALID,19.7256,VALID,13,VALID,1.20987,
2006-01-21, 02:59:00,VALID,916.744,VALID,0,VALID,100,VALID,0.186789,VALID,19.7221,VALID,2,VALID,0.828506,
2006-01-21, 03:00:00,VALID,916.735,VALID,0,VALID,100,VALID,0.152827,VALID,19.7283,VALID,30,VALID,0.887835,
2006-01-21, 03:01:00,VALID,916.731,VALID,0,VALID,100,VALID,0.20377,VALID,19.738,VALID,19,VALID,0.698475,
2006-01-21, 03:02:00,VALID,916.744,VALID,0,VALID,100,VALID,0.20377,VALID,19.7509,VALID,16,VALID,0.463542,
2006-01-21, 03:03:00,VALID,916.759,VALID,0,VALID,100,VALID,0.220751,VALID,19.741,VALID,16,VALID,0.114099,
2006-01-21, 03:04:00,VALID,916.75,VALID,0,VALID,100,VALID,0.220751,VALID,19.7504,VALID,16,VALID,0.312128,
2006-01-21, 03:05:00,VALID,916.768,VALID,0,VALID,100,VALID,0.20377,VALID,19.7639,VALID,16,VALID,0.0328125,
2006-01-21, 03:06:00,VALID,916.755,VALID,0,VALID,100,VALID,0.0849042,VALID,19.7524,VALID,17,VALID,0.539063,
2006-01-21, 03:07:00,VALID,916.761,VALID,0,VALID,100,VALID,0.101885,VALID,19.7462,VALID,19,VALID,1.07757,
2006-01-21, 03:08:00,VALID,916.759,VALID,0,VALID,100,VALID,0.101885,VALID,19.7427,VALID,14,VALID,1.02637,
2006-01-21, 03:09:00,VALID,916.747,VALID,0,VALID,100,VALID,0.101885,VALID,19.7661,VALID,17,VALID,1.11519,
2006-01-21, 03:10:00,VALID,916.778,VALID,0,VALID,100,VALID,0.0679233,VALID,19.7594,VALID,13,VALID,0.734193,
2006-01-21, 03:11:00,VALID,916.769,VALID,0,VALID,100,VALID,0.0679233,VALID,19.7462,VALID,24,VALID,1.1183,
2006-01-21, 03:12:00,VALID,916.745,VALID,0,VALID,100,VALID,0.0849042,VALID,19.7718,VALID,26,VALID,1.66611,
2006-01-21, 03:13:00,VALID,916.757,VALID,0,VALID,100,VALID,0.152827,VALID,19.7756,VALID,19,VALID,1.42066,
2006-01-21, 03:14:00,VALID,916.752,VALID,0,VALID,100,VALID,0.0849042,VALID,19.7756,VALID,18,VALID,0.804315,
2006-01-21, 03:15:00,VALID,916.742,VALID,0,VALID,100,VALID,0.101885,VALID,19.7654,VALID,14,VALID,1.25215,
2006-01-21, 03:16:00,VALID,916.739,VALID,0,VALID,100,VALID,0.101885,VALID,19.7656,VALID,330,VALID,1.4282,
2006-01-21, 03:17:00,VALID,916.742,VALID,0,VALID,100,VALID,0.0849042,VALID,19.7552,VALID,14,VALID,0.80923,
2006-01-21, 03:18:00,VALID,916.722,VALID,0,VALID,100,VALID,0.101885,VALID,19.7654,VALID,9,VALID,0.690549,
2006-01-21, 03:19:00,VALID,916.714,VALID,0,VALID,100,VALID,0.101885,VALID,19.7718,VALID,360,VALID,1.09695,
2006-01-21, 03:20:00,VALID,916.742,VALID,0,VALID,100,VALID,0.101885,VALID,19.778,VALID,44,VALID,0.774771,
2006-01-21, 03:21:00,VALID,916.757,VALID,0,VALID,100,VALID,0.101885,VALID,19.7783,VALID,74,VALID,0.384859,
2006-01-21, 03:22:00,VALID,916.77,VALID,0,VALID,100,VALID,0.101885,VALID,19.7783,VALID,351,VALID,0.57867,
2006-01-21, 03:23:00,VALID,916.789,VALID,0,VALID,100,VALID,0.0849042,VALID,19.7853,VALID,7,VALID,0.616386,
2006-01-21, 03:24:00,VALID,916.817,VALID,0,VALID,100,VALID,0.101885,VALID,19.7887,VALID,13,VALID,0.330221,
2006-01-21, 03:25:00,VALID,916.839,VALID,0,VALID,100,VALID,0.101885,VALID,19.7688,VALID,19,VALID,0.385069,
2006-01-21, 03:26:00,VALID,916.844,VALID,0,VALID,100,VALID,0.118866,VALID,19.7683,VALID,342,VALID,0.972565,
2006-01-21, 03:27:00,VALID,916.851,VALID,0,VALID,100,VALID,0.0849042,VALID,19.7721,VALID,275,VALID,1.22892,
2006-01-21, 03:28:00,VALID,916.854,VALID,0,VALID,100,VALID,0.0679233,VALID,19.7758,VALID,25,VALID,0.923828,
2006-01-21, 03:29:00,VALID,916.852,VALID,0,VALID,100,VALID,0.0679233,VALID,19.7624,VALID,16,VALID,0.686955,
2006-01-21, 03:30:00,VALID,916.86,VALID,0,VALID,100,VALID,0.0509425,VALID,19.7656,VALID,22,VALID,0.496795,
2006-01-21, 03:31:00,VALID,916.871,VALID,0,VALID,100,VALID,0.0849042,VALID,19.7586,VALID,27,VALID,0.0655185,
2006-01-21, 03:32:00,VALID,916.87,VALID,0,VALID,100,VALID,0.0679233,VALID,19.7589,VALID,145,VALID,0.449591,
2006-01-21, 03:33:00,VALID,916.853,VALID,0,VALID,100,VALID,0.0849042,VALID,19.7557,VALID,121,VALID,0.151442,
2006-01-21, 03:34:00,VALID,916.866,VALID,0,VALID,100,VALID,0.0679233,VALID,19.7683,VALID,30,VALID,0.717188,
2006-01-21, 03:35:00,VALID,916.864,VALID,0,VALID,100,VALID,0.0849042,VALID,19.7489,VALID,3,VALID,0.197311,
2006-01-21, 03:36:00,VALID,916.876,VALID,0,VALID,100,VALID,0.118866,VALID,19.7492,VALID,4,VALID,0.24814,
2006-01-21, 03:37:00,VALID,916.885,VALID,0,VALID,100,VALID,0.101885,VALID,19.7527,VALID,6,VALID,0.638867,
2006-01-21, 03:38:00,VALID,916.873,VALID,0,VALID,100,VALID,0.0849042,VALID,19.7425,VALID,19,VALID,0.824491,
2006-01-21, 03:39:00,VALID,916.86,VALID,0,VALID,100,VALID,0.118866,VALID,19.7527,VALID,6,VALID,0.424162,
2006-01-21, 03:40:00,VALID,916.854,VALID,0,VALID,100,VALID,0.0679233,VALID,19.7395,VALID,4,VALID,0.161966,
2006-01-21, 03:41:00,VALID,916.833,VALID,0,VALID,100,VALID,0.0679233,VALID,19.727,VALID,4,VALID,0.398624,